EW2751 Weather Reports


time (UTC)temp
C
wind
direction
speed
KPH
gust
KPH
rain 1hr
cm
rain 24hr
cm
rain mn
cm
humidity
%
barometer
mb
20260506023026 19 47 8.0 14.5 0.00 0.13 0.13 80 1026.5
20260506022524 19 79 6.4 14.5 0.00 0.13 0.13 80 1026.5
20260506014520 20 47 6.4 16.1 0.00 0.13 0.13 79 1026.8
20260506014034 20 56 6.4 19.3 0.00 0.13 0.13 79 1026.7
20260506014013 20 32 6.4 19.3 0.00 0.13 0.13 80 1026.7
20260506012022 20 45 8.0 17.7 0.03 0.13 0.13 80 1026.9
20260506011522 20 64 8.0 19.3 0.03 0.13 0.13 81 1026.8
20260506011019 20 54 9.7 19.3 0.03 0.13 0.13 82 1026.8
20260506010520 20 56 4.8 16.1 0.03 0.13 0.13 83 1026.9
20260506010020 19 100 8.0 19.3 0.03 0.13 0.13 83 1027.0
20260506005520 19 75 9.7 19.3 0.03 0.13 0.13 84 1027.0
20260506005020 20 41 6.4 14.5 0.03 0.13 0.13 87 1027.0
20260506004533 19 355 4.8 11.3 0.05 0.13 0.13 88 1027.0
20260506003008 19 67 3.2 16.1 0.03 0.10 0.10 86 1027.2
20260506002031 19 64 6.4 11.3 0.03 0.10 0.10 86 1027.5
20260506001516 18 132 3.2 14.5 0.03 0.10 0.10 87 1027.6
20260506001017 18 92 4.8 14.5 0.03 0.10 0.10 87 1027.6
20260506000529 18 360 6.4 12.9 0.03 0.10 0.10 87 1027.8
20260506000017 18 70 4.8 8.0 0.03 0.10 0.10 88 1027.8
20260505235515 18 47 1.6 11.3 0.03 0.10 0.10 86 1028.0
20260505235015 18 65 4.8 11.3 0.00 0.08 0.08 85 1028.0
20260505234515 18 324 3.2 12.9 0.00 0.08 0.08 83 1028.1
20260505233515 19 67 4.8 12.9 0.00 0.08 0.08 83 1028.0
20260505233022 19 83 6.4 14.5 0.00 0.08 0.08 83 1028.0
20260505230020 20 107 6.4 14.5 0.00 0.08 0.08 82 1028.2
20260505222517 19 116 6.4 11.3 0.03 0.08 0.08 83 1028.6
20260505222018 19 80 3.2 12.9 0.03 0.08 0.08 85 1028.5
20260505221518 19 83 6.4 12.9 0.03 0.08 0.08 86 1028.6
20260505221015 18 49 6.4 11.3 0.03 0.08 0.08 87 1028.7
20260505220516 18 103 3.2 12.9 0.03 0.08 0.08 86 1028.7
20260505220017 18 94 6.4 11.3 0.03 0.08 0.08 86 1028.8
20260505215516 18 78 6.4 12.9 0.03 0.08 0.08 85 1028.9
20260505215016 18 75 3.2 11.3 0.03 0.08 0.08 84 1028.9
20260505214529 19 78 4.8 12.9 0.03 0.08 0.08 84 1028.9
20260505214017 19 99 4.8 12.9 0.00 0.05 0.05 83 1028.9
20260505213529 20 64 4.8 6.4 0.00 0.05 0.05 85 1028.9
20260505213016 20 111 1.6 9.7 0.00 0.05 0.05 86 1028.9
20260505212517 19 57 3.2 11.3 0.00 0.05 0.05 86 1028.9
20260505212018 19 80 3.2 9.7 0.00 0.05 0.05 87 1028.9
20260505204021 18 164 0.0 1.6 0.00 0.05 0.05 92 1028.9
20260505192518 16 182 0.0 0.0 0.00 0.05 0.05 93 1028.6
20260505095552 15 131 0.0 1.6 0.00 0.00 0.00 88 1030.4
20260505093034 15 133 0.0 0.0 0.00 0.00 0.00 88 1030.4
20260505054015 17 109 4.8 12.9 0.00 0.00 0.00 83 1029.8
20260505054008 17 88 4.8 12.9 0.00 0.00 0.00 83 1029.8
20260505053546 17 60 6.4 14.5 0.00 0.00 0.00 83 1029.7
20260505052516 17 103 9.7 16.1 0.00 0.00 0.00 83 1029.7
20260505052015 17 99 11.3 16.1 0.00 0.00 0.00 83 1029.7
20260505040522 18 98 12.9 20.9 0.00 0.00 0.00 80 1029.9
20260505035018 18 90 12.9 24.1 0.00 0.00 0.00 80 1029.9
20260505035008 18 68 12.9 24.1 0.00 0.00 0.00 80 1029.9